Het weer op Woensdrecht:2014/10/31 23:55 EHWO 312355Z AUTO 17003KT 9999 NCD 13/10 Q1019 BLU
Het weer op Amsterdam:2014/10/31 23:55 EHAM 312355Z 16007KT CAVOK 12/11 Q1018 NOSIG

Menu promotie
· De club
· Motor(zweefvliegen) bij de ACV
· De vloot
· Kennismaken met de ACV


Buien Radar


Inloggen voor leden
WelkomAnonymous!


Lid nummer    
Wachtwoord 
Code: Code
Type Code in
[Wachtwoord vergeten?]


Picasa foto link
ACV externe fotolink


 
Sorry, deze module is niet actief (acv_addon_4)

[ Ga terug ]
copyright (c) ACV 2006 - 2014

All logos and trademarks in this site are property of their respective owner. The comments are property of their posters, all the rest 2005 by me.
PHP-Nuke Copyright © 2005 by Francisco Burzi. This is free software, and you may redistribute it under the GPL. PHP-Nuke comes with absolutely no warranty, for details, see the license.
Pagina Rendering: 0.65 Seconden